Hourly Data Report for September 14, 2017

All times are specified in Local Standard Time (LST). Add 1 hour to adjust for Daylight Saving Time where and when it is observed.

CLYDE RIVER A
NUNAVUT

70°29'09.000" N
68°31'01.000" W
26.50 m
2400804
71090
YCY

Related Data

No related data is available for this station

Download Data

Hourly Data (September 2017)
Hourly Data Report for September 14, 2017
Temp Definition
°C
Dew Point Temp Definition
°C
Rel Hum Definition
%
Wind Dir Definition
10's deg

Wind Spd Definition
km/h
Visibility Definition
km
Stn Press Definition
kPa
Hmdx Definition


Wind Chill Definition


Weather Definition


TIME
00:00 Legend Double Dagger 1.0 -0.3 91 3 18 16.1 101.41     LegendNANA
01:00 Legend Double Dagger 1.0 -0.3 91 3 17 16.1 101.39     LegendNANA
02:00 Legend Double Dagger 0.2 -0.3 97 2 17 9.7 101.38     Snow
03:00 Legend Double Dagger 0.4 -0.3 95 2 17 4.8 101.38     Snow
04:00 Legend Double Dagger 0.1 -0.5 96 4 21 8.1 101.37     Snow
05:00 Legend Double Dagger -0.3 -1.0 95 3 22 8.1 101.35   -6 Snow
06:00 Legend Double Dagger -0.3 -1.0 95 1 21 4.8 101.34   -6 Snow
07:00 Legend Double Dagger -0.1 -1.1 93 1 18 12.9 101.32   -5 Snow
08:00 Legend Double Dagger -0.1 -1.4 91 1 21 16.1 101.27   -6 Snow
09:00 Legend Double Dagger -0.1 -1.0 94 36 18 2.0 101.22   -5 Snow
10:00 Legend Double Dagger 0.1 -1.2 91 35 21 16.1 101.16     LegendNANA
11:00 Legend Double Dagger 0.2 -0.9 93 36 18 8.1 101.12     Snow
12:00 Legend Double Dagger 0.0 -1.5 90 34 30 8.1 101.08   -6 Rain,Fog
13:00 Legend Double Dagger 0.5 -2.0 83 35 26 16.1 101.02     LegendNANA
14:00 Legend Double Dagger 0.7 -1.8 83 35 35 16.1 100.93     LegendNANA
15:00 Legend Double Dagger 0.3 -1.9 85 34 30 16.1 100.88     LegendNANA
16:00 Legend Double Dagger -0.5 -1.6 93 33 30 4.8 100.84   -7 Snow
17:00 Legend Double Dagger -0.6 -2.6 87 32 32 16.1 100.77   -7 LegendNANA
18:00 Legend Double Dagger -1.1 -2.7 89 33 32 9.7 100.71   -8 Snow
19:00 Legend Double Dagger -1.4 -3.2 88 32 39 4.0 100.64   -9 Snow
20:00 Legend Double Dagger -1.6 -3.5 87 31 41 16.1 100.54   -10 LegendNANA
21:00 Legend Double Dagger -1.4 -2.7 91 32 43 6.4 100.48   -10 Snow
22:00 Legend Double Dagger -1.0 -3.1 86 33 41 16.1 100.41   -9 LegendNANA
23:00 Legend Double Dagger -0.8 -2.7 87 32 39 16.1 100.37   -8 LegendNANA

Notes on Data Quality.

Legend

  • E = Estimated
  • M = Missing
  • NA = Not Available
  • ‡ = Partner data that is not subject to review by the National Climate Archives
Date modified: